軌道要素
Epoch 2015 Jan. 18.0 TT = JDT 2457040.5
T 2015 Feb. 2.61839 TT MPCW
q 4.6979159 (2000.0) P Q
z +0.0180136 Peri. 147.81112 -0.80512179 -0.59222083
+/-0.0000000 Node 4.54531 -0.59279826 +0.80526614
e 0.9153734 Incl. 155.82319 -0.01921270 -0.02865187
From 236 observations 2014 Apr. 10-2015 May 22, mean residual 0".5.
|